Time,TemperatureF,DewpointF,PressureIn,WindDirection,WindDirectionDegrees,WindSpeedMPH,WindSpeedGustMPH,Humidity,HourlyPrecipIn,Conditions,Clouds,dailyrainin,SoftwareType,DateUTC
2013-06-09 00:03:00,82.2,54.8,29.66,West,281,0.0,0.0,39,0.00,CLR,,0.00,WeatherDisplay:10.37,2013-06-09 07:03:00,
2013-06-09 00:08:00,82.1,55.4,29.66,West,281,0.0,0.0,40,0.00,CLR,,0.00,WeatherDisplay:10.37,2013-06-09 07:08:00,
2013-06-09 00:13:00,81.9,54.5,29.66,West,281,0.0,0.0,39,0.00,CLR,,0.00,WeatherDisplay:10.37,2013-06-09 07:13:00,
2013-06-09 00:18:00,81.7,55.0,29.66,West,281,0.0,0.0,40,0.00,CLR,,0.00,WeatherDisplay:10.37,2013-06-09 07:18:00,
2013-06-09 00:23:00,81.4,56.1,29.66,West,281,0.0,0.0,42,0.00,CLR,,0.00,WeatherDisplay:10.37,2013-06-09 07:23:00,
2013-06-09 00:28:00,81.0,55.1,29.66,West,281,0.0,0.0,41,0.00,CLR,,0.00,WeatherDisplay:10.37,2013-06-09 07:28:00,
2013-06-09 00:33:00,80.5,55.9,29.67,West,281,0.0,0.0,43,0.00,CLR,,0.00,WeatherDisplay:10.37,2013-06-09 07:33:00,
2013-06-09 00:38:00,80.2,54.4,29.66,West,281,0.0,0.0,41,0.00,CLR,,0.00,WeatherDisplay:10.37,2013-06-09 07:38:00,
2013-06-09 00:43:00,79.9,54.8,29.66,West,281,0.0,0.0,42,0.00,CLR,,0.00,WeatherDisplay:10.37,2013-06-09 07:43:00,
2013-06-09 00:48:00,79.6,55.8,29.66,West,281,0.0,0.0,44,0.00,CLR,,0.00,WeatherDisplay:10.37,2013-06-09 07:48:00,
2013-06-09 00:53:00,79.3,54.2,29.66,West,281,0.0,0.0,42,0.00,CLR,,0.00,WeatherDisplay:10.37,2013-06-09 07:53:00,
2013-06-09 00:58:00,79.0,55.8,29.66,West,281,0.0,0.0,45,0.00,CLR,,0.00,WeatherDisplay:10.37,2013-06-09 07:58:00,
2013-06-09 01:03:00,78.7,55.6,29.66,West,281,0.0,0.0,45,0.00,CLR,,0.00,WeatherDisplay:10.37,2013-06-09 08:03:00,
2013-06-09 01:08:00,78.4,55.3,29.66,West,281,0.0,0.0,45,0.00,CLR,,0.00,WeatherDisplay:10.37,2013-06-09 08:08:00,
2013-06-09 01:13:00,78.3,53.3,29.66,West,281,1.2,1.2,42,0.00,CLR,,0.00,WeatherDisplay:10.37,2013-06-09 08:13:00,
2013-06-09 01:18:00,78.8,53.1,29.66,West,281,0.0,0.0,41,0.00,CLR,,0.00,WeatherDisplay:10.37,2013-06-09 08:18:00,
2013-06-09 01:23:00,79.2,52.8,29.66,West,281,0.0,0.0,40,0.00,CLR,,0.00,WeatherDisplay:10.37,2013-06-09 08:23:00,
2013-06-09 01:28:00,79.6,52.5,29.66,West,281,0.0,0.0,39,0.00,CLR,,0.00,WeatherDisplay:10.37,2013-06-09 08:28:00,
2013-06-09 01:33:00,79.9,52.7,29.66,West,281,0.0,0.0,39,0.00,CLR,,0.00,WeatherDisplay:10.37,2013-06-09 08:33:00,
2013-06-09 01:38:00,79.8,52.6,29.66,West,281,0.0,0.0,39,0.00,CLR,,0.00,WeatherDisplay:10.37,2013-06-09 08:38:00,
2013-06-09 01:43:00,79.5,51.7,29.66,West,281,0.0,0.0,38,0.00,CLR,,0.00,WeatherDisplay:10.37,2013-06-09 08:43:00,
2013-06-09 01:48:00,79.6,51.8,29.66,West,281,0.0,0.0,38,0.00,CLR,,0.00,WeatherDisplay:10.37,2013-06-09 08:48:00,
2013-06-09 01:53:00,79.8,51.9,29.66,West,281,0.0,0.0,38,0.00,CLR,,0.00,WeatherDisplay:10.37,2013-06-09 08:53:00,
2013-06-09 01:58:00,79.8,51.9,29.66,West,281,0.0,0.0,38,0.00,CLR,,0.00,WeatherDisplay:10.37,2013-06-09 08:58:00,
2013-06-09 02:03:00,79.7,51.8,29.66,West,281,0.0,0.0,38,0.00,CLR,,0.00,WeatherDisplay:10.37,2013-06-09 09:03:00,
2013-06-09 02:08:00,79.5,52.4,29.67,West,281,0.0,0.0,39,0.00,CLR,,0.00,WeatherDisplay:10.37,2013-06-09 09:08:00,
2013-06-09 02:13:00,79.2,52.1,29.66,West,281,0.0,0.0,39,0.00,CLR,,0.00,WeatherDisplay:10.37,2013-06-09 09:13:00,
2013-06-09 02:18:00,79.0,51.9,29.66,West,281,0.0,0.0,39,0.00,CLR,,0.00,WeatherDisplay:10.37,2013-06-09 09:18:00,
2013-06-09 02:23:00,78.8,51.7,29.66,West,281,0.0,0.0,39,0.00,CLR,,0.00,WeatherDisplay:10.37,2013-06-09 09:23:00,
2013-06-09 02:28:00,78.7,51.7,29.66,West,281,0.0,0.0,39,0.00,CLR,,0.00,WeatherDisplay:10.37,2013-06-09 09:28:00,
2013-06-09 02:33:00,78.5,51.5,29.66,West,281,0.0,0.0,39,0.00,CLR,,0.00,WeatherDisplay:10.37,2013-06-09 09:33:00,
2013-06-09 02:38:00,78.4,52.1,29.66,West,281,0.0,0.0,40,0.00,CLR,,0.00,WeatherDisplay:10.37,2013-06-09 09:38:00,
2013-06-09 02:43:00,78.3,51.3,29.66,WNW,283,0.0,0.0,39,0.00,CLR,,0.00,WeatherDisplay:10.37,2013-06-09 09:43:00,
2013-06-09 02:48:00,78.2,51.9,29.66,WNW,283,0.0,0.0,40,0.00,CLR,,0.00,WeatherDisplay:10.37,2013-06-09 09:48:00,
2013-06-09 02:53:00,78.1,51.8,29.66,WNW,283,0.0,0.0,40,0.00,CLR,,0.00,WeatherDisplay:10.37,2013-06-09 09:53:00,
2013-06-09 02:58:00,77.9,52.3,29.66,WNW,283,0.0,0.0,41,0.00,CLR,,0.00,WeatherDisplay:10.37,2013-06-09 09:58:00,
2013-06-09 03:03:00,77.8,51.5,29.66,WNW,283,0.0,0.0,40,0.00,CLR,,0.00,WeatherDisplay:10.37,2013-06-09 10:03:00,
2013-06-09 03:08:00,77.6,52.0,29.67,WNW,283,0.0,0.0,41,0.00,CLR,,0.00,WeatherDisplay:10.37,2013-06-09 10:08:00,
2013-06-09 03:13:00,77.4,52.5,29.67,WNW,283,0.0,0.0,42,0.00,CLR,,0.00,WeatherDisplay:10.37,2013-06-09 10:13:00,
2013-06-09 03:18:00,77.1,52.2,29.67,WNW,283,0.0,0.0,42,0.00,CLR,,0.00,WeatherDisplay:10.37,2013-06-09 10:18:00,
2013-06-09 03:23:00,76.9,52.7,29.67,WNW,283,0.0,0.0,43,0.00,CLR,,0.00,WeatherDisplay:10.37,2013-06-09 10:23:00,
2013-06-09 03:28:00,76.6,52.4,29.67,WNW,283,0.0,0.0,43,0.00,CLR,,0.00,WeatherDisplay:10.37,2013-06-09 10:28:00,
2013-06-09 03:33:00,76.4,52.2,29.67,WNW,283,0.0,0.0,43,0.00,CLR,,0.00,WeatherDisplay:10.37,2013-06-09 10:33:00,
2013-06-09 03:38:00,76.4,52.2,29.67,WNW,283,0.0,0.0,43,0.00,CLR,,0.00,WeatherDisplay:10.37,2013-06-09 10:38:00,
2013-06-09 03:43:00,76.3,52.2,29.67,WNW,283,0.0,0.0,43,0.00,CLR,,0.00,WeatherDisplay:10.37,2013-06-09 10:43:00,
2013-06-09 03:48:00,76.2,52.7,29.67,WNW,283,0.0,0.0,44,0.00,CLR,,0.00,WeatherDisplay:10.37,2013-06-09 10:48:00,
2013-06-09 03:53:00,76.1,52.0,29.67,WNW,283,1.2,0.0,43,0.00,CLR,,0.00,WeatherDisplay:10.37,2013-06-09 10:53:00,
2013-06-09 03:58:00,76.0,52.5,29.67,WNW,283,0.0,0.0,44,0.00,CLR,,0.00,WeatherDisplay:10.37,2013-06-09 10:58:00,
2013-06-09 04:03:00,75.8,52.3,29.67,WNW,283,0.0,0.0,44,0.00,CLR,,0.00,WeatherDisplay:10.37,2013-06-09 11:03:00,
2013-06-09 04:08:00,75.6,52.1,29.67,WNW,283,0.0,0.0,44,0.00,CLR,,0.00,WeatherDisplay:10.37,2013-06-09 11:08:00,
2013-06-09 04:13:00,75.5,52.1,29.67,WNW,283,0.0,0.0,44,0.00,CLR,,0.00,WeatherDisplay:10.37,2013-06-09 11:13:00,
2013-06-09 04:18:00,75.5,52.1,29.67,WNW,283,0.0,0.0,44,0.00,CLR,,0.00,WeatherDisplay:10.37,2013-06-09 11:18:00,
2013-06-09 04:23:00,75.5,52.1,29.67,WNW,283,0.0,0.0,44,0.00,CLR,,0.00,WeatherDisplay:10.37,2013-06-09 11:23:00,
2013-06-09 04:28:00,75.4,51.3,29.67,WNW,283,0.0,0.0,43,0.00,CLR,,0.00,WeatherDisplay:10.37,2013-06-09 11:28:00,
2013-06-09 04:33:00,75.3,53.7,29.67,WNW,283,0.0,0.0,47,0.00,CLR,,0.00,WeatherDisplay:10.37,2013-06-09 11:33:00,
2013-06-09 04:38:00,75.1,52.3,29.67,WNW,283,0.0,0.0,45,0.00,CLR,,0.00,WeatherDisplay:10.37,2013-06-09 11:38:00,
2013-06-09 04:43:00,74.9,52.1,29.67,WNW,283,0.0,0.0,45,0.00,CLR,,0.00,WeatherDisplay:10.37,2013-06-09 11:43:00,
2013-06-09 04:48:00,74.8,52.0,29.67,WNW,283,0.0,0.0,45,0.00,CLR,,0.00,WeatherDisplay:10.37,2013-06-09 11:48:00,
2013-06-09 04:53:00,74.6,52.4,29.67,WNW,283,0.0,0.0,46,0.00,CLR,,0.00,WeatherDisplay:10.37,2013-06-09 11:53:00,
2013-06-09 04:58:00,74.4,52.9,29.67,WNW,283,0.0,0.0,47,0.00,CLR,,0.00,WeatherDisplay:10.37,2013-06-09 11:58:00,
2013-06-09 05:03:00,74.4,51.7,29.67,WNW,283,0.0,0.0,45,0.00,CLR,,0.00,WeatherDisplay:10.37,2013-06-09 12:03:00,
2013-06-09 05:08:00,74.4,52.3,29.67,WNW,283,0.0,0.0,46,0.00,CLR,,0.00,WeatherDisplay:10.37,2013-06-09 12:08:00,
2013-06-09 05:13:00,74.3,52.2,29.67,WNW,283,0.0,0.0,46,0.00,CLR,,0.00,WeatherDisplay:10.37,2013-06-09 12:13:00,
2013-06-09 05:18:00,74.1,52.0,29.67,WNW,283,0.0,0.0,46,0.00,CLR,,0.00,WeatherDisplay:10.37,2013-06-09 12:18:00,
2013-06-09 05:23:00,73.8,52.3,29.67,WNW,283,0.0,0.0,47,0.00,CLR,,0.00,WeatherDisplay:10.37,2013-06-09 12:23:00,
2013-06-09 05:28:00,73.5,52.6,29.67,WNW,283,0.0,0.0,48,0.00,CLR,,0.00,WeatherDisplay:10.37,2013-06-09 12:28:00,
2013-06-09 05:33:00,73.2,52.3,29.67,WNW,283,0.0,0.0,48,0.00,CLR,,0.00,WeatherDisplay:10.37,2013-06-09 12:33:00,
2013-06-09 05:38:00,73.0,52.1,29.67,WNW,283,0.0,0.0,48,0.00,CLR,,0.00,WeatherDisplay:10.37,2013-06-09 12:38:00,
2013-06-09 05:43:00,72.9,52.6,29.67,WNW,283,0.0,0.0,49,0.00,CLR,,0.00,WeatherDisplay:10.37,2013-06-09 12:43:00,
2013-06-09 05:48:00,72.9,52.1,29.67,WNW,283,0.0,0.0,48,0.00,CLR,,0.00,WeatherDisplay:10.37,2013-06-09 12:48:00,
2013-06-09 05:53:00,72.9,51.5,29.67,WNW,283,0.0,0.0,47,0.00,CLR,,0.00,WeatherDisplay:10.37,2013-06-09 12:53:00,
2013-06-09 05:58:00,73.0,51.0,29.67,SW,217,0.0,0.0,46,0.00,CLR,,0.00,WeatherDisplay:10.37,2013-06-09 12:58:00,
2013-06-09 06:03:00,73.3,50.7,29.67,SW,217,0.0,0.0,45,0.00,CLR,,0.00,WeatherDisplay:10.37,2013-06-09 13:03:00,
2013-06-09 06:08:00,73.4,51.4,29.67,SW,217,0.0,0.0,46,0.00,CLR,,0.00,WeatherDisplay:10.37,2013-06-09 13:08:00,
2013-06-09 06:13:00,73.4,50.8,29.68,SW,215,0.0,0.0,45,0.00,CLR,,0.00,WeatherDisplay:10.37,2013-06-09 13:13:00,
2013-06-09 06:18:00,73.5,50.2,29.68,SW,215,0.0,0.0,44,0.00,CLR,,0.00,WeatherDisplay:10.37,2013-06-09 13:18:00,
2013-06-09 06:23:00,73.5,50.9,29.68,SW,215,0.0,0.0,45,0.00,CLR,,0.00,WeatherDisplay:10.37,2013-06-09 13:23:00,
2013-06-09 06:28:00,73.5,50.9,29.68,SW,215,0.0,0.0,45,0.00,CLR,,0.00,WeatherDisplay:10.37,2013-06-09 13:28:00,
2013-06-09 06:33:00,73.5,50.9,29.68,SW,215,0.0,0.0,45,0.00,CLR,,0.00,WeatherDisplay:10.37,2013-06-09 13:33:00,
2013-06-09 06:38:00,73.6,50.9,29.68,SW,215,1.2,0.0,45,0.00,CLR,,0.00,WeatherDisplay:10.37,2013-06-09 13:38:00,
2013-06-09 06:43:00,73.6,50.3,29.69,SW,215,0.0,0.0,44,0.00,CLR,,0.00,WeatherDisplay:10.37,2013-06-09 13:43:00,
2013-06-09 06:48:00,73.7,50.4,29.69,SSW,212,0.0,0.0,44,0.00,CLR,,0.00,WeatherDisplay:10.37,2013-06-09 13:48:00,
2013-06-09 06:53:00,73.8,50.5,29.69,South,173,0.0,0.0,44,0.00,CLR,,0.00,WeatherDisplay:10.37,2013-06-09 13:53:00,
2013-06-09 06:58:00,74.0,50.1,29.69,South,169,0.0,0.0,43,0.00,CLR,,0.00,WeatherDisplay:10.37,2013-06-09 13:58:00,
2013-06-09 07:03:00,74.1,50.2,29.69,ESE,108,1.2,1.2,43,0.00,CLR,,0.00,WeatherDisplay:10.37,2013-06-09 14:03:00,
2013-06-09 07:08:00,74.2,50.9,29.70,ESE,106,0.0,0.0,44,0.00,CLR,,0.00,WeatherDisplay:10.37,2013-06-09 14:08:00,
2013-06-09 07:13:00,74.3,50.4,29.70,ESE,106,1.2,0.0,43,0.00,CLR,,0.00,WeatherDisplay:10.37,2013-06-09 14:13:00,
2013-06-09 07:18:00,74.5,50.5,29.70,ESE,108,1.2,1.2,43,0.00,CLR,,0.00,WeatherDisplay:10.37,2013-06-09 14:18:00,
2013-06-09 07:23:00,74.7,50.7,29.70,SE,125,0.0,0.0,43,0.00,CLR,,0.00,WeatherDisplay:10.37,2013-06-09 14:23:00,
2013-06-09 07:28:00,74.9,50.3,29.70,ESE,120,1.2,1.2,42,0.00,CLR,,0.00,WeatherDisplay:10.37,2013-06-09 14:28:00,
2013-06-09 07:33:00,75.2,51.2,29.70,ESE,122,0.0,0.0,43,0.00,CLR,,0.00,WeatherDisplay:10.37,2013-06-09 14:33:00,
2013-06-09 07:38:00,75.3,50.6,29.70,ESE,117,0.0,0.0,42,0.00,CLR,,0.00,WeatherDisplay:10.37,2013-06-09 14:38:00,
2013-06-09 07:43:00,75.4,51.3,29.70,ESE,120,0.0,0.0,43,0.00,CLR,,0.00,WeatherDisplay:10.37,2013-06-09 14:43:00,
2013-06-09 07:48:00,75.6,51.5,29.70,ESE,115,0.0,0.0,43,0.00,CLR,,0.00,WeatherDisplay:10.37,2013-06-09 14:48:00,
2013-06-09 07:53:00,75.9,53.6,29.70,ESE,114,0.0,0.0,46,0.00,CLR,,0.00,WeatherDisplay:10.37,2013-06-09 14:53:00,
2013-06-09 07:58:00,76.1,51.3,29.70,ESE,114,0.0,0.0,42,0.00,CLR,,0.00,WeatherDisplay:10.37,2013-06-09 14:58:00,
2013-06-09 08:03:00,76.4,51.0,29.70,ESE,114,1.2,0.0,41,0.00,CLR,,0.00,WeatherDisplay:10.37,2013-06-09 15:03:00,
2013-06-09 08:08:00,76.8,51.3,29.70,SE,126,0.0,0.0,41,0.00,CLR,,0.00,WeatherDisplay:10.37,2013-06-09 15:08:00,
2013-06-09 08:13:00,77.2,52.3,29.70,WSW,255,0.0,0.0,42,0.00,CLR,,0.00,WeatherDisplay:10.37,2013-06-09 15:13:00,
2013-06-09 08:18:00,77.5,52.6,29.71,WSW,243,0.0,0.0,42,0.00,CLR,,0.00,WeatherDisplay:10.37,2013-06-09 15:18:00,
2013-06-09 08:23:00,77.9,53.0,29.71,West,270,0.0,0.0,42,0.00,CLR,,0.00,WeatherDisplay:10.37,2013-06-09 15:23:00,
2013-06-09 08:28:00,78.3,54.0,29.71,SW,225,0.0,0.0,43,0.00,CLR,,0.00,WeatherDisplay:10.37,2013-06-09 15:28:00,
2013-06-09 08:33:00,78.6,55.5,29.71,SSW,201,0.0,0.0,45,0.00,CLR,,0.00,WeatherDisplay:10.37,2013-06-09 15:33:00,
2013-06-09 08:38:00,78.9,55.8,29.71,SW,232,1.2,0.0,45,0.00,CLR,,0.00,WeatherDisplay:10.37,2013-06-09 15:38:00,
2013-06-09 08:43:00,79.2,57.2,29.70,SW,232,0.0,0.0,47,0.00,CLR,,0.00,WeatherDisplay:10.37,2013-06-09 15:43:00,
2013-06-09 08:48:00,79.4,57.4,29.71,WSW,252,0.0,0.0,47,0.00,CLR,,0.00,WeatherDisplay:10.37,2013-06-09 15:48:00,
2013-06-09 08:53:00,79.7,57.1,29.70,West,271,1.2,0.0,46,0.00,CLR,,0.00,WeatherDisplay:10.37,2013-06-09 15:53:00,
2013-06-09 08:58:00,80.0,58.0,29.70,WSW,248,0.0,0.1,47,0.00,CLR,,0.00,WeatherDisplay:10.37,2013-06-09 15:58:00,
2013-06-09 09:03:00,80.2,57.5,29.70,SW,225,0.0,0.0,46,0.00,CLR,,0.00,WeatherDisplay:10.37,2013-06-09 16:03:00,
2013-06-09 09:08:00,80.4,57.7,29.70,East,98,1.2,0.0,46,0.00,CLR,,0.00,WeatherDisplay:10.37,2013-06-09 16:08:00,
2013-06-09 09:13:00,80.7,59.2,29.70,WSW,257,0.0,0.0,48,0.00,CLR,,0.00,WeatherDisplay:10.37,2013-06-09 16:13:00,
2013-06-09 09:18:00,81.1,59.0,29.70,WSW,249,0.0,0.0,47,0.00,CLR,,0.00,WeatherDisplay:10.37,2013-06-09 16:18:00,
2013-06-09 09:23:00,81.4,59.2,29.70,WSW,255,1.2,1.2,47,0.00,CLR,,0.00,WeatherDisplay:10.37,2013-06-09 16:23:00,
2013-06-09 09:28:00,81.7,60.7,29.70,WSW,252,0.0,0.0,49,0.00,CLR,,0.00,WeatherDisplay:10.37,2013-06-09 16:28:00,
2013-06-09 09:33:00,82.0,59.8,29.70,West,277,0.0,0.0,47,0.00,CLR,,0.00,WeatherDisplay:10.37,2013-06-09 16:33:00,
2013-06-09 09:38:00,82.3,59.4,29.70,SSW,197,0.0,0.0,46,0.00,CLR,,0.00,WeatherDisplay:10.37,2013-06-09 16:38:00,
2013-06-09 09:43:00,82.6,60.9,29.70,West,274,2.3,2.3,48,0.00,CLR,,0.00,WeatherDisplay:10.37,2013-06-09 16:43:00,
2013-06-09 09:48:00,83.0,61.9,29.70,WSW,252,0.0,0.0,49,0.00,CLR,,0.00,WeatherDisplay:10.37,2013-06-09 16:48:00,
2013-06-09 09:53:00,83.3,61.0,29.70,SSW,206,0.0,0.0,47,0.00,CLR,,0.00,WeatherDisplay:10.37,2013-06-09 16:53:00,
2013-06-09 09:58:00,83.6,61.2,29.70,West,260,0.0,0.2,47,0.00,CLR,,0.00,WeatherDisplay:10.37,2013-06-09 16:58:00,
2013-06-09 10:03:00,84.0,62.2,29.70,SE,135,0.0,0.0,48,0.00,CLR,,0.00,WeatherDisplay:10.37,2013-06-09 17:03:00,
2013-06-09 10:08:00,84.4,61.4,29.70,WSW,249,2.3,2.3,46,0.00,CLR,,0.00,WeatherDisplay:10.37,2013-06-09 17:08:00,
2013-06-09 10:13:00,84.8,61.7,29.70,SSW,210,1.2,1.2,46,0.00,CLR,,0.00,WeatherDisplay:10.37,2013-06-09 17:13:00,
2013-06-09 10:18:00,85.4,61.6,29.70,SSE,154,0.0,0.0,45,0.00,CLR,,0.00,WeatherDisplay:10.37,2013-06-09 17:18:00,
2013-06-09 10:23:00,85.6,61.2,29.70,South,172,0.0,0.0,44,0.00,CLR,,0.00,WeatherDisplay:10.37,2013-06-09 17:23:00,
2013-06-09 10:28:00,85.6,61.2,29.70,SSW,207,1.2,1.2,44,0.00,CLR,,0.00,WeatherDisplay:10.37,2013-06-09 17:28:00,
2013-06-09 10:33:00,85.7,61.3,29.70,SSE,159,1.2,1.2,44,0.00,CLR,,0.00,WeatherDisplay:10.37,2013-06-09 17:33:00,
2013-06-09 10:38:00,86.1,61.6,29.71,WSW,255,1.2,1.2,44,0.00,CLR,,0.00,WeatherDisplay:10.37,2013-06-09 17:38:00,
2013-06-09 10:43:00,86.1,61.0,29.71,SW,235,1.2,1.2,43,0.00,CLR,,0.00,WeatherDisplay:10.37,2013-06-09 17:43:00,
2013-06-09 10:48:00,86.1,60.3,29.71,SE,133,0.0,0.0,42,0.00,CLR,,0.00,WeatherDisplay:10.37,2013-06-09 17:48:00,
2013-06-09 10:53:00,86.2,61.1,29.71,SSW,192,0.0,0.0,43,0.00,CLR,,0.00,WeatherDisplay:10.37,2013-06-09 17:53:00,
2013-06-09 10:58:00,86.6,61.4,29.70,ESE,117,1.0,1.0,43,0.00,CLR,,0.00,WeatherDisplay:10.37,2013-06-09 17:58:00,
2013-06-09 11:03:00,86.8,61.0,29.71,West,276,1.0,1.0,42,0.00,CLR,,0.00,WeatherDisplay:10.37,2013-06-09 18:03:00,
2013-06-09 11:08:00,87.3,61.4,29.71,SSW,197,0.0,0.0,42,0.00,CLR,,0.00,WeatherDisplay:10.37,2013-06-09 18:08:00,
2013-06-09 11:13:00,87.5,62.2,29.70,WNW,288,1.2,1.2,43,0.00,CLR,,0.00,WeatherDisplay:10.37,2013-06-09 18:13:00,
2013-06-09 11:18:00,87.9,60.6,29.70,South,181,1.2,1.2,40,0.00,CLR,,0.00,WeatherDisplay:10.37,2013-06-09 18:18:00,
2013-06-09 11:23:00,88.5,61.1,29.70,NNE,30,1.2,0.0,40,0.00,CLR,,0.00,WeatherDisplay:10.37,2013-06-09 18:23:00,
2013-06-09 11:28:00,88.9,60.7,29.70,SW,215,3.5,3.5,39,0.00,CLR,,0.00,WeatherDisplay:10.37,2013-06-09 18:28:00,
2013-06-09 11:33:00,89.1,61.6,29.70,North,356,0.0,0.0,40,0.00,CLR,,0.00,WeatherDisplay:10.37,2013-06-09 18:33:00,
2013-06-09 11:38:00,89.4,60.5,29.70,SSW,201,0.0,0.0,38,0.00,CLR,,0.00,WeatherDisplay:10.37,2013-06-09 18:38:00,
2013-06-09 11:43:00,90.0,60.2,29.70,West,270,1.2,1.2,37,0.00,CLR,,0.00,WeatherDisplay:10.37,2013-06-09 18:43:00,
2013-06-09 11:48:00,90.2,60.4,29.70,North,7,1.2,1.2,37,0.00,CLR,,0.00,WeatherDisplay:10.37,2013-06-09 18:48:00,
2013-06-09 11:53:00,90.1,60.3,29.70,NNW,328,1.2,1.2,37,0.00,CLR,,0.00,WeatherDisplay:10.37,2013-06-09 18:53:00,
2013-06-09 11:58:00,90.1,61.1,29.70,WSW,257,1.2,1.2,38,0.00,CLR,,0.00,WeatherDisplay:10.37,2013-06-09 18:58:00,
2013-06-09 12:03:00,90.8,62.4,29.70,WSW,246,1.2,1.2,39,0.00,CLR,,0.00,WeatherDisplay:10.37,2013-06-09 19:03:00,
2013-06-09 12:08:00,91.8,62.6,29.70,NNW,348,2.3,2.3,38,0.00,CLR,,0.00,WeatherDisplay:10.37,2013-06-09 19:08:00,
2013-06-09 12:13:00,92.4,61.6,29.70,North,360,2.3,2.3,36,0.00,CLR,,0.00,WeatherDisplay:10.37,2013-06-09 19:13:00,
2013-06-09 12:18:00,92.2,60.6,29.70,North,6,3.5,3.5,35,0.00,CLR,,0.00,WeatherDisplay:10.37,2013-06-09 19:18:00,
2013-06-09 12:23:00,92.4,60.8,29.70,NNW,345,2.3,2.3,35,0.00,CLR,,0.00,WeatherDisplay:10.37,2013-06-09 19:23:00,
2013-06-09 12:28:00,92.5,61.7,29.70,SSW,210,1.2,1.2,36,0.00,CLR,,0.00,WeatherDisplay:10.37,2013-06-09 19:28:00,
2013-06-09 12:33:00,92.8,61.1,29.70,West,277,2.3,2.3,35,0.00,CLR,,0.00,WeatherDisplay:10.37,2013-06-09 19:33:00,
2013-06-09 12:38:00,93.0,61.3,29.69,SSW,207,1.2,0.0,35,0.00,CLR,,0.00,WeatherDisplay:10.37,2013-06-09 19:38:00,
2013-06-09 12:43:00,93.4,61.7,29.70,North,4,2.3,2.3,35,0.00,CLR,,0.00,WeatherDisplay:10.37,2013-06-09 19:43:00,
2013-06-09 12:48:00,93.7,63.5,29.70,SSE,152,2.3,2.3,37,0.00,CLR,,0.00,WeatherDisplay:10.37,2013-06-09 19:48:00,
2013-06-09 12:53:00,94.3,62.4,29.69,SE,145,1.2,0.0,35,0.00,CLR,,0.00,WeatherDisplay:10.37,2013-06-09 19:53:00,
2013-06-09 12:58:00,94.9,63.0,29.69,South,189,2.3,2.3,35,0.00,CLR,,0.00,WeatherDisplay:10.37,2013-06-09 19:58:00,
2013-06-09 13:03:00,95.3,62.5,29.69,NW,323,1.2,1.2,34,0.00,CLR,,0.00,WeatherDisplay:10.37,2013-06-09 20:03:00,
2013-06-09 13:08:00,95.5,62.7,29.69,NW,321,1.2,1.2,34,0.00,CLR,,0.00,WeatherDisplay:10.37,2013-06-09 20:08:00,
2013-06-09 13:13:00,95.3,62.5,29.69,NNW,348,2.3,2.3,34,0.00,CLR,,0.00,WeatherDisplay:10.37,2013-06-09 20:13:00,
2013-06-09 13:18:00,95.3,63.3,29.69,NW,304,3.5,3.5,35,0.00,CLR,,0.00,WeatherDisplay:10.37,2013-06-09 20:18:00,
2013-06-09 13:23:00,96.1,64.8,29.69,West,275,0.0,0.1,36,0.00,CLR,,0.00,WeatherDisplay:10.37,2013-06-09 20:23:00,
2013-06-09 13:28:00,96.4,62.6,29.69,North,356,3.5,3.5,33,0.00,CLR,,0.00,WeatherDisplay:10.37,2013-06-09 20:28:00,
2013-06-09 13:33:00,95.7,62.8,29.68,NW,315,0.0,0.0,34,0.00,CLR,,0.00,WeatherDisplay:10.37,2013-06-09 20:33:00,
2013-06-09 13:38:00,96.2,63.3,29.68,SSW,212,1.2,0.0,34,0.00,CLR,,0.00,WeatherDisplay:10.37,2013-06-09 20:38:00,
2013-06-09 13:43:00,97.0,64.0,29.68,SW,229,1.2,1.2,34,0.00,CLR,,0.00,WeatherDisplay:10.37,2013-06-09 20:43:00,
2013-06-09 13:48:00,97.9,63.0,29.67,East,84,1.2,1.2,32,0.00,CLR,,0.00,WeatherDisplay:10.37,2013-06-09 20:48:00,
2013-06-09 13:53:00,97.3,62.5,29.67,NNW,336,3.5,3.5,32,0.00,CLR,,0.00,WeatherDisplay:10.37,2013-06-09 20:53:00,
2013-06-09 13:58:00,97.4,63.5,29.67,NW,322,2.0,2.0,33,0.00,CLR,,0.00,WeatherDisplay:10.37,2013-06-09 20:58:00,
2013-06-09 14:03:00,97.5,61.8,29.67,NNW,333,3.5,3.5,31,0.00,CLR,,0.00,WeatherDisplay:10.37,2013-06-09 21:03:00,
2013-06-09 14:08:00,97.2,62.4,29.67,NW,307,3.5,3.5,32,0.00,CLR,,0.00,WeatherDisplay:10.37,2013-06-09 21:08:00,
2013-06-09 14:13:00,97.6,63.6,29.66,NW,316,3.5,3.5,33,0.00,CLR,,0.00,WeatherDisplay:10.37,2013-06-09 21:13:00,
2013-06-09 14:18:00,97.8,63.8,29.66,NNW,333,2.0,2.0,33,0.00,CLR,,0.00,WeatherDisplay:10.37,2013-06-09 21:18:00,
2013-06-09 14:23:00,97.8,64.7,29.66,East,100,1.2,0.0,34,0.00,CLR,,0.00,WeatherDisplay:10.37,2013-06-09 21:23:00,
2013-06-09 14:28:00,98.9,63.0,29.65,North,349,2.3,2.3,31,0.00,CLR,,0.00,WeatherDisplay:10.37,2013-06-09 21:28:00,
2013-06-09 14:33:00,99.6,65.4,29.65,WNW,300,1.2,1.2,33,0.00,CLR,,0.00,WeatherDisplay:10.37,2013-06-09 21:33:00,
2013-06-09 14:38:00,99.3,63.3,29.65,WSW,243,3.5,3.5,31,0.00,CLR,,0.00,WeatherDisplay:10.37,2013-06-09 21:38:00,
2013-06-09 14:43:00,98.9,63.0,29.65,NNE,30,3.5,3.5,31,0.00,CLR,,0.00,WeatherDisplay:10.37,2013-06-09 21:43:00,
2013-06-09 14:48:00,98.8,61.0,29.65,North,359,1.2,1.2,29,0.00,CLR,,0.00,WeatherDisplay:10.37,2013-06-09 21:48:00,
2013-06-09 14:53:00,99.2,61.4,29.65,NNW,335,2.3,2.3,29,0.00,CLR,,0.00,WeatherDisplay:10.37,2013-06-09 21:53:00,
2013-06-09 14:58:00,99.9,61.0,29.65,WNW,288,2.3,2.3,28,0.00,CLR,,0.00,WeatherDisplay:10.37,2013-06-09 21:58:00,
2013-06-09 15:03:00,99.9,62.0,29.64,NE,51,2.3,2.3,29,0.00,CLR,,0.00,WeatherDisplay:10.37,2013-06-09 22:03:00,
2013-06-09 15:08:00,100.5,63.4,29.64,North,349,3.5,3.5,30,0.00,CLR,,0.00,WeatherDisplay:10.37,2013-06-09 22:08:00,
2013-06-09 15:13:00,100.8,63.7,29.64,NNE,24,3.5,3.5,30,0.00,CLR,,0.00,WeatherDisplay:10.37,2013-06-09 22:13:00,
2013-06-09 15:18:00,100.8,61.7,29.64,NNW,339,3.5,3.5,28,0.00,CLR,,0.00,WeatherDisplay:10.37,2013-06-09 22:18:00,
2013-06-09 15:23:00,100.6,62.6,29.63,East,89,1.2,1.2,29,0.00,CLR,,0.00,WeatherDisplay:10.37,2013-06-09 22:23:00,
2013-06-09 15:28:00,101.1,62.0,29.63,North,356,5.8,5.8,28,0.00,CLR,,0.00,WeatherDisplay:10.37,2013-06-09 22:28:00,
2013-06-09 15:33:00,100.5,62.5,29.63,SE,139,1.2,1.2,29,0.00,CLR,,0.00,WeatherDisplay:10.37,2013-06-09 22:33:00,
2013-06-09 15:38:00,101.1,62.0,29.63,NNE,16,2.3,2.3,28,0.00,CLR,,0.00,WeatherDisplay:10.37,2013-06-09 22:38:00,
2013-06-09 15:43:00,101.8,62.6,29.63,North,350,2.3,2.3,28,0.00,CLR,,0.00,WeatherDisplay:10.37,2013-06-09 22:43:00,
2013-06-09 15:48:00,101.9,62.7,29.63,SW,229,1.2,1.2,28,0.00,CLR,,0.00,WeatherDisplay:10.37,2013-06-09 22:48:00,
2013-06-09 15:53:00,102.5,63.2,29.62,South,180,1.2,1.2,28,0.00,CLR,,0.00,WeatherDisplay:10.37,2013-06-09 22:53:00,
2013-06-09 15:58:00,103.0,63.6,29.63,NE,46,1.2,1.2,28,0.00,CLR,,0.00,WeatherDisplay:10.37,2013-06-09 22:58:00,
2013-06-09 16:03:00,103.1,62.7,29.62,SSW,198,2.3,2.3,27,0.00,CLR,,0.00,WeatherDisplay:10.37,2013-06-09 23:03:00,
2013-06-09 16:08:00,103.0,62.6,29.62,NNE,13,2.3,2.3,27,0.00,CLR,,0.00,WeatherDisplay:10.37,2013-06-09 23:08:00,
2013-06-09 16:13:00,103.2,62.7,29.62,NW,309,3.5,3.5,27,0.00,CLR,,0.00,WeatherDisplay:10.37,2013-06-09 23:13:00,
2013-06-09 16:18:00,103.1,63.7,29.62,WNW,287,1.2,1.2,28,0.00,CLR,,0.00,WeatherDisplay:10.37,2013-06-09 23:18:00,
2013-06-09 16:23:00,103.4,59.6,29.62,SW,225,1.2,1.2,24,0.00,CLR,,0.00,WeatherDisplay:10.37,2013-06-09 23:23:00,
2013-06-09 16:28:00,103.6,62.0,29.61,North,7,3.5,3.5,26,0.00,CLR,,0.00,WeatherDisplay:10.37,2013-06-09 23:28:00,
2013-06-09 16:33:00,101.9,60.6,29.61,NNW,345,5.8,5.8,26,0.00,CLR,,0.00,WeatherDisplay:10.37,2013-06-09 23:33:00,
2013-06-09 16:38:00,101.7,61.5,29.61,SSW,204,2.3,2.3,27,0.00,CLR,,0.00,WeatherDisplay:10.37,2013-06-09 23:38:00,
2013-06-09 16:43:00,102.5,61.1,29.61,West,274,2.3,2.3,26,0.00,CLR,,0.00,WeatherDisplay:10.37,2013-06-09 23:43:00,
2013-06-09 16:48:00,102.7,60.1,29.61,NNW,333,3.5,3.5,25,0.00,CLR,,0.00,WeatherDisplay:10.37,2013-06-09 23:48:00,
2013-06-09 16:53:00,102.5,61.1,29.61,NNE,15,2.3,2.3,26,0.00,CLR,,0.00,WeatherDisplay:10.37,2013-06-09 23:53:00,
2013-06-09 16:58:00,102.4,61.0,29.61,North,356,3.5,3.5,26,0.00,CLR,,0.00,WeatherDisplay:10.37,2013-06-09 23:58:00,
2013-06-09 17:03:00,102.5,62.1,29.60,WNW,283,2.3,2.3,27,0.00,CLR,,0.00,WeatherDisplay:10.37,2013-06-10 00:03:00,
2013-06-09 17:08:00,102.6,58.9,29.60,North,360,3.5,3.5,24,0.00,CLR,,0.00,WeatherDisplay:10.37,2013-06-10 00:08:00,
2013-06-09 17:13:00,101.5,56.8,29.60,WNW,302,2.3,2.3,23,0.00,CLR,,0.00,WeatherDisplay:10.37,2013-06-10 00:13:00,
2013-06-09 17:18:00,101.3,56.6,29.60,North,356,4.0,4.0,23,0.00,CLR,,0.00,WeatherDisplay:10.37,2013-06-10 00:18:00,
2013-06-09 17:23:00,101.6,58.1,29.60,NNW,347,3.0,3.0,24,0.00,CLR,,0.00,WeatherDisplay:10.37,2013-06-10 00:23:00,
2013-06-09 17:28:00,101.5,58.0,29.60,West,264,3.5,3.5,24,0.00,CLR,,0.00,WeatherDisplay:10.37,2013-06-10 00:28:00,
2013-06-09 17:33:00,101.9,58.3,29.60,NW,325,3.5,3.5,24,0.00,CLR,,0.00,WeatherDisplay:10.37,2013-06-10 00:33:00,
2013-06-09 17:38:00,101.7,58.2,29.60,WNW,291,3.5,3.5,24,0.00,CLR,,0.00,WeatherDisplay:10.37,2013-06-10 00:38:00,
2013-06-09 17:43:00,100.8,57.4,29.60,NNE,19,5.8,5.8,24,0.00,CLR,,0.00,WeatherDisplay:10.37,2013-06-10 00:43:00,
2013-06-09 17:48:00,100.5,58.3,29.60,NNW,339,2.3,2.3,25,0.00,CLR,,0.00,WeatherDisplay:10.37,2013-06-10 00:48:00,
2013-06-09 17:53:00,100.6,57.2,29.60,North,358,3.5,3.5,24,0.00,CLR,,0.00,WeatherDisplay:10.37,2013-06-10 00:53:00,
2013-06-09 17:58:00,100.1,58.0,29.60,West,274,3.5,3.5,25,0.00,CLR,,0.00,WeatherDisplay:10.37,2013-06-10 00:58:00,
2013-06-09 18:03:00,100.4,58.2,29.60,SW,222,4.6,4.6,25,0.00,CLR,,0.00,WeatherDisplay:10.37,2013-06-10 01:03:00,
2013-06-09 18:08:00,100.3,59.2,29.60,NNW,330,4.0,4.0,26,0.00,CLR,,0.00,WeatherDisplay:10.37,2013-06-10 01:08:00,
2013-06-09 18:13:00,99.7,58.7,29.60,North,354,3.5,3.5,26,0.00,CLR,,0.00,WeatherDisplay:10.37,2013-06-10 01:13:00,
2013-06-09 18:18:00,99.3,57.3,29.60,NNW,335,5.8,5.8,25,0.00,CLR,,0.00,WeatherDisplay:10.37,2013-06-10 01:18:00,
2013-06-09 18:23:00,98.9,58.0,29.60,NNW,328,3.5,3.5,26,0.00,CLR,,0.00,WeatherDisplay:10.37,2013-06-10 01:23:00,
2013-06-09 18:28:00,99.1,58.2,29.60,North,1,3.0,3.0,26,0.00,CLR,,0.00,WeatherDisplay:10.37,2013-06-10 01:28:00,
2013-06-09 18:33:00,98.9,56.9,29.60,North,350,2.3,2.3,25,0.00,CLR,,0.00,WeatherDisplay:10.37,2013-06-10 01:33:00,
2013-06-09 18:38:00,98.7,57.9,29.60,North,7,3.5,3.5,26,0.00,CLR,,0.00,WeatherDisplay:10.37,2013-06-10 01:38:00,
2013-06-09 18:43:00,98.6,57.8,29.60,NW,308,3.5,3.5,26,0.00,CLR,,0.00,WeatherDisplay:10.37,2013-06-10 01:43:00,
2013-06-09 18:48:00,98.5,59.8,29.60,NNE,29,2.3,2.3,28,0.00,CLR,,0.00,WeatherDisplay:10.37,2013-06-10 01:48:00,
2013-06-09 18:53:00,98.4,58.7,29.60,West,273,2.3,2.3,27,0.00,CLR,,0.00,WeatherDisplay:10.37,2013-06-10 01:53:00,
2013-06-09 18:58:00,98.1,59.4,29.60,SW,235,3.5,3.5,28,0.00,CLR,,0.00,WeatherDisplay:10.37,2013-06-10 01:58:00,
2013-06-09 19:03:00,97.7,58.1,29.60,North,6,2.3,2.3,27,0.00,CLR,,0.00,WeatherDisplay:10.37,2013-06-10 02:03:00,
2013-06-09 19:08:00,96.9,59.4,29.60,North,359,0.0,0.0,29,0.00,CLR,,0.00,WeatherDisplay:10.37,2013-06-10 02:08:00,
2013-06-09 19:13:00,96.4,59.9,29.61,NW,326,2.0,2.0,30,0.00,CLR,,0.00,WeatherDisplay:10.37,2013-06-10 02:13:00,
2013-06-09 19:18:00,95.7,59.3,29.61,WNW,297,2.3,2.3,30,0.00,CLR,,0.00,WeatherDisplay:10.37,2013-06-10 02:18:00,
2013-06-09 19:23:00,95.1,60.6,29.61,NNE,19,2.3,2.3,32,0.00,CLR,,0.00,WeatherDisplay:10.37,2013-06-10 02:23:00,
2013-06-09 19:28:00,94.5,61.0,29.61,North,8,2.3,2.3,33,0.00,CLR,,0.00,WeatherDisplay:10.37,2013-06-10 02:28:00,
2013-06-09 19:33:00,93.8,60.3,29.61,North,8,2.3,2.3,33,0.00,CLR,,0.00,WeatherDisplay:10.37,2013-06-10 02:33:00,
2013-06-09 19:38:00,93.4,60.8,29.61,NNW,347,2.3,2.3,34,0.00,CLR,,0.00,WeatherDisplay:10.37,2013-06-10 02:38:00,
2013-06-09 19:43:00,93.0,61.3,29.61,WSW,257,1.2,1.2,35,0.00,CLR,,0.00,WeatherDisplay:10.37,2013-06-10 02:43:00,
2013-06-09 19:48:00,92.6,61.0,29.61,NW,323,3.5,3.5,35,0.00,CLR,,0.00,WeatherDisplay:10.37,2013-06-10 02:48:00,
2013-06-09 19:53:00,92.2,61.4,29.61,North,352,2.3,2.3,36,0.00,CLR,,0.00,WeatherDisplay:10.37,2013-06-10 02:53:00,
2013-06-09 19:58:00,91.6,62.4,29.61,NW,321,3.5,3.5,38,0.00,CLR,,0.00,WeatherDisplay:10.37,2013-06-10 02:58:00,
2013-06-09 20:03:00,90.8,63.1,29.61,West,267,3.5,3.5,40,0.00,CLR,,0.00,WeatherDisplay:10.37,2013-06-10 03:03:00,
2013-06-09 20:08:00,90.0,62.4,29.61,NE,40,2.0,2.0,40,0.00,CLR,,0.00,WeatherDisplay:10.37,2013-06-10 03:08:00,
2013-06-09 20:13:00,89.4,62.6,29.62,North,360,2.0,2.0,41,0.00,CLR,,0.00,WeatherDisplay:10.37,2013-06-10 03:13:00,
2013-06-09 20:18:00,89.0,62.9,29.62,WNW,286,1.2,0.0,42,0.00,CLR,,0.00,WeatherDisplay:10.37,2013-06-10 03:18:00,
2013-06-09 20:23:00,88.5,62.5,29.62,NNW,330,2.3,2.3,42,0.00,CLR,,0.00,WeatherDisplay:10.37,2013-06-10 03:23:00,
2013-06-09 20:28:00,88.0,62.7,29.62,NNW,330,3.0,3.0,43,0.00,CLR,,0.00,WeatherDisplay:10.37,2013-06-10 03:28:00,
2013-06-09 20:33:00,87.6,63.0,29.62,NNW,333,1.2,1.2,44,0.00,CLR,,0.00,WeatherDisplay:10.37,2013-06-10 03:33:00,
2013-06-09 20:38:00,87.2,62.6,29.63,ENE,61,3.5,3.5,44,0.00,CLR,,0.00,WeatherDisplay:10.37,2013-06-10 03:38:00,
2013-06-09 20:43:00,86.8,62.3,29.63,NNW,345,1.2,1.2,44,0.00,CLR,,0.00,WeatherDisplay:10.37,2013-06-10 03:43:00,
2013-06-09 20:48:00,86.5,62.6,29.63,NW,319,1.2,0.0,45,0.00,CLR,,0.00,WeatherDisplay:10.37,2013-06-10 03:48:00,
2013-06-09 20:53:00,86.1,62.3,29.63,North,1,2.3,2.3,45,0.00,CLR,,0.00,WeatherDisplay:10.37,2013-06-10 03:53:00,
2013-06-09 20:58:00,85.7,62.5,29.63,NNW,343,2.3,2.3,46,0.00,CLR,,0.00,WeatherDisplay:10.37,2013-06-10 03:58:00,
2013-06-09 21:01:00,85.6,62.4,29.63,North,6,2.3,2.3,46,0.00,CLR,,0.00,WeatherDisplay:10.37,2013-06-10 04:01:00,
2013-06-09 21:07:00,85.2,62.1,29.64,NNW,328,1.2,1.2,46,0.00,CLR,,0.00,WeatherDisplay:10.37,2013-06-10 04:07:00,
2013-06-09 21:12:00,85.0,61.9,29.64,North,349,3.0,3.0,46,0.00,CLR,,0.00,WeatherDisplay:10.37,2013-06-10 04:12:00,
2013-06-09 21:17:00,84.8,61.7,29.64,NW,316,1.2,1.2,46,0.00,CLR,,0.00,WeatherDisplay:10.37,2013-06-10 04:17:00,
2013-06-09 21:22:00,84.6,62.1,29.64,North,349,1.2,1.2,47,0.00,CLR,,0.00,WeatherDisplay:10.37,2013-06-10 04:22:00,
2013-06-09 21:27:00,84.4,62.0,29.64,NW,321,2.3,2.3,47,0.00,CLR,,0.00,WeatherDisplay:10.37,2013-06-10 04:27:00,
2013-06-09 21:32:00,84.1,61.7,29.65,NNW,335,2.3,2.3,47,0.00,CLR,,0.00,WeatherDisplay:10.37,2013-06-10 04:32:00,
2013-06-09 21:37:00,83.9,61.5,29.65,NW,325,2.3,2.3,47,0.00,CLR,,0.00,WeatherDisplay:10.37,2013-06-10 04:37:00,
2013-06-09 21:42:00,83.6,61.8,29.65,NNW,330,2.3,2.3,48,0.00,CLR,,0.00,WeatherDisplay:10.37,2013-06-10 04:42:00,
2013-06-09 21:47:00,83.4,61.7,29.65,NW,307,0.0,0.0,48,0.00,CLR,,0.00,WeatherDisplay:10.37,2013-06-10 04:47:00,
2013-06-09 21:52:00,83.2,62.1,29.65,NW,322,1.2,0.0,49,0.00,CLR,,0.00,WeatherDisplay:10.37,2013-06-10 04:52:00,
2013-06-09 21:57:00,82.9,61.8,29.65,NNW,339,0.0,0.0,49,0.00,CLR,,0.00,WeatherDisplay:10.37,2013-06-10 04:57:00,
2013-06-09 22:02:00,82.6,61.5,29.66,North,351,1.2,1.2,49,0.00,CLR,,0.00,WeatherDisplay:10.37,2013-06-10 05:02:00,
2013-06-09 22:07:00,82.5,61.4,29.66,North,351,0.0,0.0,49,0.00,CLR,,0.00,WeatherDisplay:10.37,2013-06-10 05:07:00,
2013-06-09 22:12:00,82.5,62.0,29.66,North,351,0.0,0.0,50,0.00,CLR,,0.00,WeatherDisplay:10.37,2013-06-10 05:12:00,
2013-06-09 22:17:00,82.3,62.4,29.67,North,350,0.0,0.0,51,0.00,CLR,,0.00,WeatherDisplay:10.37,2013-06-10 05:17:00,
2013-06-09 22:22:00,81.9,62.0,29.67,North,350,0.0,0.0,51,0.00,CLR,,0.00,WeatherDisplay:10.37,2013-06-10 05:22:00,
2013-06-09 22:27:00,81.5,61.6,29.68,NNW,328,0.0,0.0,51,0.00,CLR,,0.00,WeatherDisplay:10.37,2013-06-10 05:27:00,
2013-06-09 22:32:00,81.2,61.9,29.68,NNW,330,0.0,0.0,52,0.00,CLR,,0.00,WeatherDisplay:10.37,2013-06-10 05:32:00,
2013-06-09 22:37:00,80.9,61.6,29.68,NW,311,0.0,0.0,52,0.00,CLR,,0.00,WeatherDisplay:10.37,2013-06-10 05:37:00,
2013-06-09 22:42:00,80.7,62.0,29.68,SSE,155,0.0,0.0,53,0.00,CLR,,0.00,WeatherDisplay:10.37,2013-06-10 05:42:00,
2013-06-09 22:47:00,80.3,62.1,29.68,SSE,156,0.0,0.0,54,0.00,CLR,,0.00,WeatherDisplay:10.37,2013-06-10 05:47:00,
2013-06-09 22:52:00,80.0,61.9,29.68,SW,215,0.0,0.0,54,0.00,CLR,,0.00,WeatherDisplay:10.37,2013-06-10 05:52:00,
2013-06-09 22:57:00,79.7,61.6,29.68,SW,215,0.0,0.0,54,0.00,CLR,,0.00,WeatherDisplay:10.37,2013-06-10 05:57:00,
2013-06-09 23:02:00,79.2,61.1,29.68,SW,215,0.0,0.0,54,0.00,CLR,,0.00,WeatherDisplay:10.37,2013-06-10 06:02:00,
2013-06-09 23:07:00,78.8,60.7,29.68,SW,215,0.0,0.0,54,0.00,CLR,,0.00,WeatherDisplay:10.37,2013-06-10 06:07:00,
2013-06-09 23:12:00,78.3,60.8,29.68,SW,215,0.0,0.0,55,0.00,CLR,,0.00,WeatherDisplay:10.37,2013-06-10 06:12:00,
2013-06-09 23:17:00,77.9,60.4,29.68,SW,215,0.0,0.0,55,0.00,CLR,,0.00,WeatherDisplay:10.37,2013-06-10 06:17:00,
2013-06-09 23:22:00,77.7,60.2,29.69,SW,215,0.0,0.0,55,0.00,CLR,,0.00,WeatherDisplay:10.37,2013-06-10 06:22:00,
2013-06-09 23:27:00,77.4,59.5,29.69,SW,215,0.0,0.0,54,0.00,CLR,,0.00,WeatherDisplay:10.37,2013-06-10 06:27:00,
2013-06-09 23:32:00,77.1,58.6,29.69,SW,215,0.0,0.0,53,0.00,CLR,,0.00,WeatherDisplay:10.37,2013-06-10 06:32:00,
2013-06-09 23:37:00,76.8,60.4,29.69,SW,215,0.0,0.0,57,0.00,CLR,,0.00,WeatherDisplay:10.37,2013-06-10 06:37:00,
2013-06-09 23:42:00,76.5,59.6,29.69,SW,215,0.0,0.0,56,0.00,CLR,,0.00,WeatherDisplay:10.37,2013-06-10 06:42:00,
2013-06-09 23:47:00,76.3,58.9,29.69,SSW,200,0.0,0.0,55,0.00,CLR,,0.00,WeatherDisplay:10.37,2013-06-10 06:47:00,
2013-06-09 23:52:00,76.1,58.8,29.70,SSW,201,0.0,0.0,55,0.00,CLR,,0.00,WeatherDisplay:10.37,2013-06-10 06:52:00,
2013-06-09 23:57:00,75.7,58.4,29.70,South,172,0.0,0.0,55,0.00,CLR,,0.00,WeatherDisplay:10.37,2013-06-10 06:57:00,